This is the latest recevied weather packets stored in our database for station/object CW79215. If no packets are shown the sender has not sent any weather packets the latest 10 day(s).
| Time | Temp. | Humidity | Pressure | Rain* | Wind** | Luminosity | Snow |
|---|---|---|---|---|---|---|---|
| 1788155430 | 16.67° C | 81% | 1027.9 hPa | - | - | - | - |
| 1788154530 | 17.22° C | 82% | 1027.7 hPa | - | - | - | - |
| 1788153630 | 17.22° C | 81% | 1027.6 hPa | - | - | - | - |
| 1788152730 | 17.22° C | 81% | 1027.5 hPa | - | - | - | - |
| 1788151830 | 17.22° C | 85% | 1027.5 hPa | - | - | - | - |
| 1788150930 | 16.67° C | 85% | 1027.4 hPa | - | - | - | - |
| 1788150030 | 16.67° C | 86% | 1027.3 hPa | - | - | - | - |
| 1788149130 | 17.22° C | 85% | 1027.1 hPa | - | - | - | - |
| 1788148230 | 17.22° C | 85% | 1027.1 hPa | - | - | - | - |
| 1788147330 | 17.78° C | 83% | 1027 hPa | - | - | - | - |
| 1788146430 | 17.78° C | 85% | 1027.1 hPa | - | - | - | - |
| 1788145529 | 17.78° C | 84% | 1027 hPa | - | - | - | - |
| 1788144629 | 17.22° C | 84% | 1026.8 hPa | - | - | - | - |
| 1788143731 | 17.22° C | 86% | 1026.8 hPa | - | - | - | - |
| 1788142830 | 16.67° C | 86% | 1026.7 hPa | - | - | - | - |
| 1788141930 | 17.22° C | 85% | 1026.5 hPa | - | - | - | - |
| 1788141037 | 16.67° C | 83% | 1026.3 hPa | - | - | - | - |
| 1788140130 | 17.22° C | 82% | 1026.5 hPa | - | - | - | - |
| 1788139230 | 17.22° C | 86% | 1026.2 hPa | - | - | - | - |
| 1788138330 | 17.78° C | 84% | 1026.2 hPa | - | - | - | - |
| 1788137430 | 17.22° C | 86% | 1026 hPa | - | - | - | - |
| 1788136530 | 17.78° C | 86% | 1026 hPa | - | - | - | - |
| 1788135630 | 18.33° C | 84% | 1026.4 hPa | - | - | - | - |
| 1788134730 | 17.78° C | 87% | 1026.4 hPa | - | - | - | - |
| 1788133830 | 17.78° C | 86% | 1026.7 hPa | - | - | - | - |
* Rain since midnight (hover to see other rain measurements)
** Current wind speed in m/s (hover to see current wind gust speed)